Regional Weather Roundup
Issued by NWS

Home | Current Version | Previous Version | Graphics & Text | Print | Product List | Glossary On
Versions: 1 2 3 4 5 6 7 8 9 10 11 12 13 14 15 16 17 18 19 20 21 22 23 24 25 26
000
ASUS45 KCYS 261610
RWRWY

WYOMING REGIONAL WEATHER ROUNDUP
NATIONAL WEATHER SERVICE CHEYENNE WY
1000 AM MDT WED JUL 26 2017

NOTE:  "FAIR" INDICATES FEW OR NO CLOUDS BELOW 12,000 FEET
WITH NO SIGNIFICANT WEATHER AND/OR OBSTRUCTIONS TO VISIBILITY.

WYZ001-261700-
YELLOWSTONE NATIONAL PARK

CITY           SKY/WX    TMP DP  RH WIND       PRES   REMARKS
LK YELLOWSTONE   N/A     54  52  93 CALM      30.44S
W YELLOWSTONE  NOT AVBL

$$
WYZ002>013-054>058-071-098>099-261700-
NORTHERN WYOMING

CITY           SKY/WX    TMP DP  RH WIND       PRES   REMARKS
JACKSON        SUNNY     61  52  72 CALM      30.36R
CODY           FAIR      70  53  54 CALM      30.26S
GREYBULL       FAIR      69  56  62 VRB3      30.20S
WORLAND        FAIR      72  57  59 VRB3      30.21S
SHERIDAN       FAIR      76  59  55 N6        30.19F
BUFFALO        FAIR      74  56  53 S16       30.26F
GILLETTE         N/A     73  61  65 MISG      30.23S
HULETT         FAIR      72  59  64 W8        30.25R
NEWCASTLE      FAIR      66  55  68 N7        30.25R

$$
WYZ014>020-022>026-101>103-261700-
CENTRAL WYOMING

CITY           SKY/WX    TMP DP  RH WIND       PRES   REMARKS
BIG PINEY      FAIR      62  52  69 S3        30.38S
PINEDALE       FAIR      64  48  55 NW6       30.38S
DUBOIS         FAIR      63  45  51 E6        30.36S
LANDER         FAIR      69  51  52 VRB3      30.28S
RIVERTON       PTSUNNY   70  52  52 CALM      30.29S
CASPER         CLOUDY    60  59  96 E10       30.30R
DOUGLAS        CLOUDY    61  56  83 E6        30.31R

$$
WYZ021-027>030-104>119-261700-
SOUTHERN WYOMING

CITY           SKY/WX    TMP DP  RH WIND       PRES   REMARKS
EVANSTON       CLOUDY    62  59  90 SW9       30.37S
KEMMERER         N/A     68  50  52 SW6       30.38S
FORT BRIDGER   CLOUDY    66  54  66 W3        30.40S
ROCK SPRINGS   FAIR      67  53  61 CALM      30.35S
RAWLINS        CLOUDY    62  57  83 NW3       30.35R
SARATOGA       CLOUDY    63  59  88 N8        30.37S
LARAMIE        CLOUDY    60  57  89 E7        30.36F
CHEYENNE       LGT RAIN  61  58  90 N10       30.32R FOG
TORRINGTON     FAIR      68  59  73 N9        30.22R
PINE BLUFFS    CLOUDY    64  59  82 N15       30.26S

$$




USA.gov is the U.S. government's official web portal to all federal, state and local government web resources and services.